Station OLCN6 - Olcott Harbor, NY Image indicating link to RSS feed of recent meteorological observations for station OLCN6


Conditions at OLCN6 as of
(11:00 pm EDT on 05/26/2024)
0300 GMT on 05/27/2024:
     

Click on the graph icon in the table below to see a time series plot of the last five days of that observation.

5-day plot - Wind Direction Wind Direction (WDIR):ESE ( 110 deg true )
5-day plot - Wind Speed Wind Speed (WSPD):7.2 m/s
5-day plot - Wind Gust Wind Gust (GST):9.3 m/s
5-day plot - Atmospheric Pressure Atmospheric Pressure (PRES):1006.8 mb
5-day plot - Pressure Tendency Pressure Tendency (PTDY): -2.0 mb ( Falling )
5-day plot - Air Temperature Air Temperature (ATMP): 18.9 °C
5-day plot - Wind Speed at 10 Meters Wind Speed at 10 meters (WSPD10M): 7 m/s
5-day plot - Wind Speed at 20 Meters Wind Speed at 20 meters (WSPD20M): 8 m/s
5-day plot -  Wind Speed, Wind Gust and Atmospheric Pressure Combined plot of Wind Speed, Gust, and Air Pressure
Previous observations
TIME
(EDT)
5-day plot - Wind Direction
WDIR
 
5-day plot - Wind Speed
WSPD
m/s
5-day plot - Wind Gust
GST
m/s
5-day plot - Wave Height
WVHT
m
5-day plot - Dominant Wave Period
DPD
sec
5-day plot - Average Wave Period
APD
sec
5-day plot - Mean Wave Direction
MWD
 
5-day plot - Atmospheric Pressure
PRES
mb
5-day plot - Pressure Tendency
PTDY
mb
5-day plot - Air Temperature
ATMP
°C
5-day plot - Water Temperature
WTMP
°C
5-day plot - Dew Point
DEWP
°C
5-day plot - Salinity
SAL
psu
5-day plot - Visibility
VIS
km
5-day plot - Tide (above MLLW)
TIDE
m
2024-05-26 10:50 pmESE 6.7 9.8----1007.1- 18.8-----
2024-05-26 10:40 pmESE 7.7 10.3----1006.8- 18.9-----
2024-05-26 10:30 pmESE 7.7 11.3----1007.1- 18.9-----
2024-05-26 10:20 pmESE 7.2 10.3----1007.5- 18.9-----
2024-05-26 10:10 pmESE 7.7 10.3----1007.5- 19.0-----
2024-05-26 10:00 pmESE 6.2 9.3----1007.8 -2.0 19.0-----
2024-05-26 09:50 pmESE 6.7 9.3----1008.1- 19.1-----
2024-05-26 09:40 pm E 6.2 9.3----1008.1- 19.1-----
2024-05-26 09:30 pmESE 5.7 7.7----1008.5- 19.1-----
2024-05-26 09:20 pm E 5.7 8.2----1008.5- 19.1-----
2024-05-26 09:10 pm E 5.7 8.2----1008.5- 19.1-----
2024-05-26 09:00 pmESE 5.7 8.2----1008.5 -2.7 19.2-----
2024-05-26 08:50 pm E 6.2 10.3----1008.5- 19.1-----
2024-05-26 08:40 pm E 7.2 9.3----1008.5- 19.1-----
2024-05-26 08:30 pm E 6.2 9.3----1008.5- 19.0-----
2024-05-26 08:20 pm E 7.2 8.8----1008.8- 17.8-----
2024-05-26 08:10 pm E 7.2 9.8----1008.8- 17.2-----
2024-05-26 08:00 pm E 8.8 10.8----1008.8 -3.1 16.9-----
2024-05-26 07:50 pm E 9.3 10.8----1008.8- 17.2-----
2024-05-26 07:40 pmENE 9.3 10.8----1008.8- 17.0-----
2024-05-26 07:30 pm E 7.7 8.8----1009.1- 17.8-----
2024-05-26 07:20 pm E 7.7 8.8----1009.5- 17.1-----
2024-05-26 07:10 pm E 8.2 9.3----1009.8- 16.9-----
2024-05-26 07:00 pmENE 8.2 9.3----1009.8 -3.1 16.9-----
2024-05-26 06:50 pm E 7.7 8.2----1010.2- 16.7-----
2024-05-26 06:40 pmENE 6.7 8.2----1010.5- 16.5-----
2024-05-26 06:30 pm E 8.2 9.3----1010.5- 16.6-----
2024-05-26 06:20 pm E 7.2 7.7----1010.8- 16.5-----
2024-05-26 06:10 pm E 6.2 7.2----1010.8- 16.4-----
2024-05-26 06:00 pmENE 6.2 6.7----1011.2 -2.7 16.4-----
2024-05-26 05:50 pmENE 5.7 6.7----1011.2- 16.3-----
2024-05-26 05:40 pmENE 5.7 6.7----1011.2- 16.3-----
2024-05-26 05:30 pmENE 5.7 6.2----1011.2- 16.3-----
2024-05-26 05:20 pmENE 5.7 6.7----1011.5- 16.3-----
2024-05-26 05:10 pmENE 6.2 6.7----1011.5- 16.3-----
2024-05-26 05:00 pmENE 5.1 6.2----1011.9 -2.3 16.2-----
2024-05-26 04:50 pmENE 5.7 6.2----1011.9- 16.1-----
2024-05-26 04:40 pmENE 5.7 6.2----1011.9- 16.0-----
2024-05-26 04:30 pmENE 4.6 5.7----1012.2- 15.8-----
2024-05-26 04:20 pmENE 5.1 5.7----1012.5- 15.6-----
2024-05-26 04:10 pmENE 5.1 5.7----1012.5- 15.3-----
2024-05-26 04:00 pmENE 4.6 5.1----1012.9 -2.0 15.0-----
2024-05-26 03:50 pmENE 4.1 4.6----1013.2- 14.6-----
2024-05-26 03:40 pmENE 4.1 5.1----1013.2- 14.1-----
2024-05-26 03:30 pmENE 4.1 4.6----1013.5- 13.9-----
2024-05-26 03:20 pm NE 4.1 4.6----1013.5- 13.8-----
2024-05-26 03:10 pm NE 4.1 4.1----1013.5- 13.7-----
2024-05-26 03:00 pm NE 3.6 4.1----1013.9 -1.0 13.6-----
2024-05-26 02:50 pmENE 3.1 4.1----1013.9- 13.5-----
2024-05-26 02:40 pm NE 3.1 3.6----1013.9- 13.5-----
2024-05-26 02:30 pm NE 3.1 3.6----1014.2- 13.5-----
2024-05-26 02:20 pm NE 2.6 3.6----1014.2- 13.5-----
2024-05-26 02:10 pm NE 2.6 3.1----1014.2- 13.6-----
2024-05-26 02:00 pm NE 1.5 3.1----1014.2 -1.0 13.5-----
2024-05-26 01:50 pmNNE 2.6 3.1----1014.6- 13.5-----
2024-05-26 01:40 pm NE 2.6 3.1----1014.6- 13.6-----
2024-05-26 01:30 pm NE 2.1 3.6----1014.9- 13.6-----
2024-05-26 01:20 pm NE 2.1 3.1----1014.6- 13.7-----
2024-05-26 01:10 pm NE 1.5 2.6----1014.6- 13.8-----
2024-05-26 01:00 pm NE 2.1 2.6----1014.9 -0.3 13.8-----
2024-05-26 12:50 pmNNE 1.5 2.6----1014.6- 13.9-----
2024-05-26 12:40 pmNNE 1.5 3.1----1014.9- 13.6-----
2024-05-26 12:30 pm NE 2.6 2.6----1014.9- 13.6-----
2024-05-26 12:20 pmNNE 2.6 3.6----1014.9- 13.7-----
2024-05-26 12:10 pm N 2.6 3.6----1014.9- 13.7-----
2024-05-26 12:00 pm N 3.1 3.6----1014.9 -0.3 13.7-----
2024-05-26 11:50 am N 2.6 3.1----1015.2- 13.5-----
2024-05-26 11:40 amNNW 3.1 3.6----1015.2- 13.4-----
2024-05-26 11:30 am NW 2.6 4.1----1015.2- 13.4-----
2024-05-26 11:20 amNNW 3.1 4.1----1015.2- 13.4-----
2024-05-26 11:10 amNNW 3.1 3.6----1015.2- 13.4-----
2024-05-26 11:00 amNNW 3.6 3.6----1015.2 +0.6 13.5-----
2024-05-26 10:50 amNNW 3.1 3.1----1015.6- 13.7-----
2024-05-26 10:40 am N 2.1 3.1----1015.2- 13.7-----
2024-05-26 10:30 am N 2.1 2.1----1014.9- 14.0-----
2024-05-26 10:20 am N 1.5 2.6----1014.9- 13.8-----
2024-05-26 10:10 amNNW 2.1 3.1----1015.2- 13.6-----
2024-05-26 10:00 amNNW 2.6 3.6----1015.2 +0.6 13.5-----
2024-05-26 09:50 amNNW 3.1 3.6----1015.2- 13.4-----
2024-05-26 09:40 amNNW 3.1 3.6----1015.6- 13.8-----
2024-05-26 09:30 am NW 1.0 2.6----1015.2- 14.0-----
2024-05-26 09:20 am- 0.0 1.5----1015.2- 14.0-----
2024-05-26 09:10 amWNW 1.0 1.5----1015.2- 14.0-----
2024-05-26 09:00 amNNW 1.0 2.6----1015.2 +0.6 13.7-----
2024-05-26 08:50 amWNW 1.5 2.6----1015.2- 13.8-----
2024-05-26 08:40 am NW 2.6 2.6----1015.2- 13.8-----
2024-05-26 08:30 am NW 2.1 2.6----1015.2- 14.1-----
2024-05-26 08:20 amNNW 2.1 2.1----1014.9- 14.2-----
2024-05-26 08:10 am NW 2.1 2.1----1014.9- 14.3-----
2024-05-26 08:00 am NW 2.1 2.1----1014.6 +0.7 14.5-----
2024-05-26 07:50 amWNW 1.5 2.1----1014.6- 14.8-----
2024-05-26 07:40 amSSW 0.5 1.5----1014.6- 14.8-----
2024-05-26 07:30 am SW 1.0 1.5----1014.6- 14.7-----
2024-05-26 07:20 amSSW 1.0 2.1----1014.6- 14.6-----
2024-05-26 07:10 am SW 1.5 2.6----1014.6- 14.4-----
2024-05-26 07:00 amSSW 1.5 2.1----1014.6 +1.1 14.2-----
2024-05-26 06:50 am SW 1.5 2.6----1014.9- 13.9-----
2024-05-26 06:40 am SW 2.1 2.1----1014.9- 13.6-----
2024-05-26 06:30 amWSW 2.1 2.1----1014.6- 13.7-----
2024-05-26 06:20 amWSW 1.5 1.5----1014.6- 13.5-----
2024-05-26 06:10 amWSW 1.0 2.6----1014.6- 13.6-----
2024-05-26 06:00 am W 1.5 2.6----1014.6 +1.7 13.6-----
2024-05-26 05:50 am SW 1.0 2.1----1014.2- 13.5-----
2024-05-26 05:40 am W 1.0 2.1----1013.9- 13.4-----
2024-05-26 05:30 am NW 2.1 2.1----1013.5- 13.4-----
2024-05-26 05:20 am W 0.5 1.5----1013.5- 13.2-----
2024-05-26 05:10 am- 0.0 2.1----1013.5- 13.1-----
2024-05-26 05:00 am W 1.0 1.5----1013.9 +1.0 13.2-----
2024-05-26 04:50 amWNW 1.5 1.5----1013.5- 13.3-----
2024-05-26 04:40 amWNW 1.0 2.6----1013.9- 13.2-----
2024-05-26 04:30 am NW 2.1 2.1----1013.5- 13.1-----
2024-05-26 04:20 amWNW 1.5 1.5----1013.5- 13.0-----
2024-05-26 04:10 amWSW 1.0 1.5----1013.5- 13.1-----
2024-05-26 04:00 amSSW 1.5 2.1----1013.5 +0.6 13.2-----
2024-05-26 03:50 amSSW 1.5 2.6----1013.2- 13.3-----
2024-05-26 03:40 amSSW 2.1 3.1----1013.2- 13.3-----
2024-05-26 03:30 amSSW 2.1 2.6----1013.2- 13.5-----
2024-05-26 03:20 am SW 1.5 2.1----1012.9- 13.7-----
2024-05-26 03:10 am SW 1.5 2.1----1013.2- 13.9-----
2024-05-26 03:00 am SW 1.5 2.1----1012.9 +0.4 14.1-----
2024-05-26 02:50 am SW 1.5 2.1----1012.9- 14.0-----
2024-05-26 02:40 am SW 1.5 2.1----1012.9- 14.0-----
2024-05-26 02:30 am SW 1.5 3.1----1012.9- 13.8-----
2024-05-26 02:20 amWSW 2.1 3.1----1012.9- 13.8-----
2024-05-26 02:10 am SW 2.1 3.1----1012.9- 13.9-----
2024-05-26 02:00 amSSW 1.0 1.5----1012.9 +1.0 14.0-----
2024-05-26 01:50 amSSW 1.0 1.5----1012.9- 14.1-----
2024-05-26 01:40 amSSW 1.0 1.5----1012.9- 14.2-----
2024-05-26 01:30 am S 1.0 1.5----1012.5- 14.5-----
2024-05-26 01:20 am SW 1.0 1.5----1012.5- 14.8-----
2024-05-26 01:10 amWSW 1.0 1.0----1012.9- 14.7-----
2024-05-26 01:00 amWNW 1.0 1.5----1012.9 +1.4 14.6-----
2024-05-26 12:50 am NW 1.0 1.5----1012.9- 14.5-----
2024-05-26 12:40 am- 0.0 1.0----1012.9- 14.5-----
2024-05-26 12:30 am S 0.5 1.0----1012.5- 14.6-----
2024-05-26 12:20 amSSE 0.5 1.0----1012.5- 14.8-----
2024-05-26 12:10 am- 0.0 1.0----1012.5- 14.8-----
2024-05-26 12:00 amSSE 0.5 2.1----1012.5 +1.7 14.8-----
2024-05-25 11:50 pmSSW 1.5 2.1----1012.2- 14.7-----
2024-05-25 11:40 pm S 1.5 2.6----1012.5- 14.8-----
2024-05-25 11:30 pm S 2.6 2.6----1012.2- 14.9-----
2024-05-25 11:20 pm S 1.5 2.1----1012.2- 15.0-----
2024-05-25 11:10 pm S 2.1 2.1----1012.2- 14.9-----
2024-05-25 11:00 pm S 2.1 2.1----1011.9 +1.4 15.1-----
2024-05-25 10:50 pm S 1.0 1.5----1011.9- 15.1-----